EW0923 Weather Reports


Display with metric or nautical units.
time (UTC)temp
F
wind
direction
speed
MPH
gust
MPH
rain 1hr
in
rain 24hr
in
rain mn
in
humidity
%
barometer
mb
20260503210039 58 274 4.0 15.0 0.00 0.00 0.00 30 1011.7
20260503205524 58 274 3.0 17.0 0.00 0.00 0.00 30 1011.8
20260503205028 59 280 3.0 17.0 0.00 0.00 0.00 31 1011.9
20260503204546 58 298 6.0 17.0 0.00 0.00 0.00 30 1011.7
20260503204024 58 42 6.0 14.0 0.00 0.00 0.00 30 1011.7
20260503203526 58 284 7.0 14.0 0.00 0.00 0.00 31 1011.9
20260503203046 58 285 4.0 12.0 0.00 0.00 0.00 30 1011.8
20260503202528 58 310 5.0 12.0 0.00 0.00 0.00 31 1011.9
20260503202024 59 296 4.0 16.0 0.00 0.00 0.00 31 1011.8
20260503201548 58 290 5.0 16.0 0.00 0.00 0.00 30 1011.8
20260503201025 58 305 3.0 14.0 0.00 0.00 0.00 30 1011.9
20260503200524 57 309 7.0 14.0 0.00 0.00 0.00 30 1012.0
20260503200044 57 259 6.0 14.0 0.00 0.00 0.00 30 1011.9
20260503195523 57 294 2.0 18.0 0.00 0.00 0.00 31 1012.0
20260503195024 57 289 3.0 18.0 0.00 0.00 0.00 31 1011.9
20260503194557 58 284 6.0 18.0 0.00 0.00 0.00 30 1012.0
20260503194025 58 293 4.0 13.0 0.00 0.00 0.00 30 1012.1
20260503193527 58 302 5.0 12.0 0.00 0.00 0.00 30 1012.0
20260503193044 57 287 4.0 12.0 0.00 0.00 0.00 30 1012.0
20260503192526 57 286 5.0 11.0 0.00 0.00 0.00 30 1012.0
20260503192027 57 294 4.0 10.0 0.00 0.00 0.00 30 1012.2
20260503191547 57 281 5.0 13.0 0.00 0.00 0.00 29 1012.3
20260503191029 58 296 6.0 13.0 0.00 0.00 0.00 31 1012.3
20260503190528 57 277 4.0 11.0 0.00 0.00 0.00 32 1012.4
20260503190046 57 296 4.0 12.0 0.00 0.00 0.00 31 1012.4
20260503185524 57 327 4.0 12.0 0.00 0.00 0.00 31 1012.6
20260503185027 57 284 4.0 13.0 0.00 0.00 0.00 30 1012.5
20260503184543 57 263 5.0 16.0 0.00 0.00 0.00 30 1012.4
20260503184029 56 327 4.0 16.0 0.00 0.00 0.00 31 1012.6
20260503183527 56 38 5.0 15.0 0.00 0.00 0.00 30 1012.7
20260503183054 56 305 4.0 14.0 0.00 0.00 0.00 31 1012.8
20260503182524 56 294 6.0 12.0 0.00 0.00 0.00 31 1012.9
20260503182026 56 281 3.0 12.0 0.00 0.00 0.00 33 1012.8
20260503181554 55 292 4.0 14.0 0.00 0.00 0.00 31 1012.8
20260503181027 56 308 5.0 14.0 0.00 0.00 0.00 33 1012.8
20260503180530 55 288 4.0 10.0 0.00 0.00 0.00 36 1012.7
20260503180050 56 290 4.0 14.0 0.00 0.00 0.00 34 1012.9
20260503175529 55 285 3.0 15.0 0.00 0.00 0.00 35 1012.9
20260503175027 55 268 7.0 15.0 0.00 0.00 0.00 35 1013.0
20260503174552 54 288 3.0 11.0 0.00 0.00 0.00 35 1012.9
20260503174030 55 285 5.0 11.0 0.00 0.00 0.00 36 1012.9
20260503173527 54 289 4.0 14.0 0.00 0.00 0.00 35 1012.9
20260503173041 54 282 6.0 14.0 0.00 0.00 0.00 35 1012.9
20260503172526 54 292 6.0 14.0 0.00 0.00 0.00 36 1013.0
20260503172027 54 322 6.0 14.0 0.00 0.00 0.00 36 1012.9
20260503171536 54 279 6.0 15.0 0.00 0.00 0.00 35 1013.0
20260503171024 54 321 6.0 15.0 0.00 0.00 0.00 34 1013.0
20260503170524 54 314 7.0 15.0 0.00 0.00 0.00 36 1013.1
20260503150526 52 288 3.0 10.0 0.00 0.00 0.00 41 1013.3
20260503131027 48 325 4.0 14.0 0.00 0.00 0.00 51 1013.3
20260503130527 49 341 3.0 10.0 0.00 0.00 0.00 51 1013.3
20260503110526 46 315 2.0 11.0 0.00 0.00 0.00 54 1012.2
20260503081536 44 342 0.0 1.0 0.00 0.00 0.00 67 1010.2
20260503081025 44 0 0.0 3.0 0.00 0.00 0.00 67 1010.2
20260503080526 45 0 0.0 3.0 0.00 0.00 0.00 67 1010.1
20260503072525 46 304 0.0 4.0 0.00 0.00 0.00 64 1010.1
20260503072027 46 268 1.0 4.0 0.00 0.00 0.00 64 1010.2
20260503071541 46 307 0.0 4.0 0.00 0.00 0.00 64 1010.1
20260503071027 46 287 0.0 1.0 0.00 0.00 0.00 64 1010.1
20260503070528 46 279 0.0 1.0 0.00 0.00 0.00 63 1010.1
20260503055027 49 0 0.0 3.0 0.00 0.00 0.00 54 1010.3
20260503054539 49 340 0.0 6.0 0.00 0.00 0.00 53 1010.2
20260503054027 49 349 2.0 6.0 0.00 0.00 0.00 53 1010.3
20260503053527 49 338 1.0 5.0 0.00 0.00 0.00 53 1010.3
20260503053046 49 329 0.0 4.0 0.00 0.00 0.00 52 1010.3
20260503052526 50 342 1.0 4.0 0.00 0.00 0.00 52 1010.5
20260503052028 50 326 1.0 4.0 0.00 0.00 0.00 51 1010.5
20260503051545 50 331 1.0 5.0 0.00 0.00 0.00 51 1010.4
20260503051027 50 173 1.0 5.0 0.00 0.00 0.00 51 1010.7
20260503050526 50 317 1.0 6.0 0.00 0.00 0.00 51 1010.6
20260503050044 50 311 1.0 6.0 0.00 0.00 0.00 50 1010.6
20260503045526 50 337 2.0 7.0 0.00 0.00 0.00 51 1010.7
20260503045027 50 312 2.0 7.0 0.00 0.00 0.00 51 1010.7
20260503044558 49 48 0.0 2.0 0.00 0.00 0.00 51 1010.8
20260503044027 49 304 0.0 3.0 0.00 0.00 0.00 52 1011.0
20260503043527 50 0 0.0 3.0 0.00 0.00 0.00 51 1010.9
20260503043037 50 327 0.0 3.0 0.00 0.00 0.00 50 1010.9
20260503042527 50 320 1.0 3.0 0.00 0.00 0.00 50 1010.9
20260503042027 50 0 0.0 3.0 0.00 0.00 0.00 50 1011.0
20260503041607 50 321 0.0 2.0 0.00 0.00 0.00 51 1011.0
20260503041026 50 0 0.0 1.0 0.00 0.00 0.00 50 1011.0
20260503040526 50 298 0.0 1.0 0.00 0.00 0.00 49 1011.1
20260503040051 50 294 0.0 4.0 0.00 0.00 0.00 49 1011.2
20260503035526 51 294 0.0 4.0 0.00 0.00 0.00 48 1011.0
20260503035026 51 336 0.0 3.0 0.00 0.00 0.00 48 1010.9
20260503034542 51 333 0.0 5.0 0.00 0.00 0.00 47 1011.0
20260503034030 51 329 1.0 5.0 0.00 0.00 0.00 47 1010.9
20260503033527 51 314 1.0 5.0 0.00 0.00 0.00 46 1010.9
20260503033043 51 329 1.0 3.0 0.00 0.00 0.00 46 1010.9
20260503032525 52 311 0.0 4.0 0.00 0.00 0.00 46 1011.0
20260503032025 52 300 1.0 6.0 0.00 0.00 0.00 45 1011.0
20260503031543 52 332 1.0 6.0 0.00 0.00 0.00 45 1011.0
20260503031025 52 350 2.0 6.0 0.00 0.00 0.00 44 1011.0
20260503030524 52 315 1.0 7.0 0.00 0.00 0.00 45 1011.0
20260503030045 52 35 2.0 7.0 0.00 0.00 0.00 44 1010.9
20260503025528 52 329 2.0 5.0 0.00 0.00 0.00 44 1010.8
20260503025028 52 326 1.0 4.0 0.00 0.00 0.00 44 1010.9
20260503024546 52 340 1.0 6.0 0.00 0.00 0.00 44 1010.9
20260503024028 53 91 1.0 6.0 0.00 0.00 0.00 44 1011.0
20260503023525 53 327 1.0 5.0 0.00 0.00 0.00 43 1011.0
20260503023049 53 314 1.0 5.0 0.00 0.00 0.00 43 1011.0
20260503022525 53 348 1.0 6.0 0.00 0.00 0.00 43 1011.0
20260503022033 53 343 2.0 8.0 0.00 0.00 0.00 43 1011.1
20260503021542 53 308 3.0 8.0 0.00 0.00 0.00 42 1011.0
20260503021029 53 315 1.0 4.0 0.00 0.00 0.00 42 1011.1
20260503020529 53 337 1.0 4.0 0.00 0.00 0.00 42 1011.1
20260503020051 54 0 0.0 4.0 0.00 0.00 0.00 43 1011.2
20260503015529 54 335 0.0 5.0 0.00 0.00 0.00 41 1011.1
20260503015028 54 321 1.0 5.0 0.00 0.00 0.00 41 1011.0
20260503014550 54 309 1.0 3.0 0.00 0.00 0.00 41 1011.1
20260503014028 54 17 1.0 7.0 0.00 0.00 0.00 41 1011.0
20260503013529 54 311 2.0 7.0 0.00 0.00 0.00 40 1011.0
20260503013045 54 291 2.0 5.0 0.00 0.00 0.00 40 1011.0
20260503012529 54 349 1.0 6.0 0.00 0.00 0.00 40 1010.9
20260503012028 54 278 1.0 6.0 0.00 0.00 0.00 40 1010.9
20260503011541 54 350 1.0 3.0 0.00 0.00 0.00 40 1010.8
20260503011028 54 331 1.0 6.0 0.00 0.00 0.00 40 1010.9
20260503010525 54 279 1.0 6.0 0.00 0.00 0.00 39 1010.8
20260503010042 54 267 1.0 8.0 0.00 0.00 0.00 39 1010.7
20260503005529 55 292 2.0 8.0 0.00 0.00 0.00 39 1010.6
20260503005029 55 322 1.0 5.0 0.00 0.00 0.00 39 1010.6
20260503004543 55 335 1.0 4.0 0.00 0.00 0.00 39 1010.7
20260503004032 55 289 1.0 3.0 0.00 0.00 0.00 39 1010.6
20260503003528 55 305 0.0 3.0 0.00 0.00 0.00 39 1010.4
20260503003045 55 336 1.0 3.0 0.00 0.00 0.00 38 1010.3
20260503002532 55 295 0.0 3.0 0.00 0.00 0.00 39 1010.3
20260503002029 55 349 1.0 3.0 0.00 0.00 0.00 38 1010.2
20260503001605 55 333 1.0 4.0 0.00 0.00 0.00 38 1010.2
20260503001029 56 285 2.0 4.0 0.00 0.00 0.00 37 1010.1
20260503000528 56 315 2.0 7.0 0.00 0.00 0.00 38 1010.1
20260503000100 56 324 2.0 7.0 0.00 0.00 0.00 37 1010.3
20260502235529 56 11 2.0 6.0 0.00 0.00 0.00 37 1010.2
20260502235030 56 347 1.0 4.0 0.00 0.00 0.00 38 1010.1
20260502234549 56 334 0.0 3.0 0.00 0.00 0.00 38 1010.1
20260502234026 56 285 0.0 3.0 0.00 0.00 0.00 37 1010.0
20260502233528 57 309 1.0 5.0 0.00 0.00 0.00 37 1010.0
20260502233037 57 292 1.0 9.0 0.00 0.00 0.00 37 1009.9
20260502232528 57 325 2.0 9.0 0.00 0.00 0.00 37 1009.9
20260502232026 57 311 1.0 9.0 0.00 0.00 0.00 37 1009.8
20260502231545 57 23 0.0 6.0 0.00 0.00 0.00 38 1009.9
20260502231028 58 342 1.0 9.0 0.00 0.00 0.00 36 1009.9
20260502230525 58 342 3.0 9.0 0.00 0.00 0.00 35 1009.9
20260502230045 58 292 3.0 9.0 0.00 0.00 0.00 36 1010.0
20260502225530 58 330 4.0 9.0 0.00 0.00 0.00 36 1009.8
20260502225026 58 349 2.0 5.0 0.00 0.00 0.00 36 1009.9
20260502224541 58 293 1.0 4.0 0.00 0.00 0.00 37 1010.0
20260502224025 58 269 0.0 4.0 0.00 0.00 0.00 38 1009.9
20260502223527 58 333 2.0 4.0 0.00 0.00 0.00 37 1009.9
20260502223040 58 341 1.0 4.0 0.00 0.00 0.00 38 1009.9
20260502222524 58 302 1.0 9.0 0.00 0.00 0.00 37 1009.9
20260502222028 58 51 2.0 9.0 0.00 0.00 0.00 37 1009.8
20260502221544 58 346 3.0 6.0 0.00 0.00 0.00 36 1009.8
20260502221025 58 279 2.0 10.0 0.00 0.00 0.00 37 1009.8
20260502220525 58 325 4.0 10.0 0.00 0.00 0.00 35 1009.8
20260502220114 59 318 4.0 8.0 0.00 0.00 0.00 36 1009.7
20260502215524 59 34 2.0 4.0 0.00 0.00 0.00 37 1009.9
20260502215024 59 280 0.0 6.0 0.00 0.00 0.00 38 1009.8
20260502214543 59 343 1.0 6.0 0.00 0.00 0.00 37 1009.9
20260502214025 59 272 1.0 6.0 0.00 0.00 0.00 37 1009.8
20260502213527 59 290 2.0 6.0 0.00 0.00 0.00 36 1009.6
20260502213044 59 306 2.0 5.0 0.00 0.00 0.00 37 1009.7
20260502212526 59 317 1.0 8.0 0.00 0.00 0.00 36 1009.8
20260502212024 59 293 3.0 8.0 0.00 0.00 0.00 37 1009.7
20260502211542 60 342 2.0 8.0 0.00 0.00 0.00 36 1009.7
20260502211023 60 333 2.0 7.0 0.00 0.00 0.00 36 1009.6
20260502210526 59 284 2.0 7.0 0.00 0.00 0.00 36 1009.5